{"data":{"norad_id":57953,"intl_designator":"2023-148U","name":"STARLINK-30700","alt_names":[],"object_type":"PAYLOAD","status":"ACTIVE","operator":null,"country":"US","launch_date":"2023-09-25","launch_site_code":"AFWTR","launch_vehicle":null,"mission":null,"orbit_class":"UNKNOWN","rcs_meters":null,"size_class":null,"mass_kg":null,"dimensions":null,"purposes":["comms"],"wikipedia_slug":null,"has_3d_model":false,"image_url":null,"decayed_at":null,"tle_current":{"epoch":"2026-05-24T22:38:41.931168Z","epoch_age_seconds":73307,"freshness":"FRESH","line1":"1 57953U 23148U   26144.94354087  .00001090  00000+0  48936-4 0  9997","line2":"2 57953  53.1603  20.0155 0001076  73.2747 286.8371 15.30189745150235","mean_motion":15.30189745,"eccentricity":0.0001076,"inclination_deg":53.1603,"raan_deg":20.0155,"arg_perigee_deg":73.2747,"mean_anomaly_deg":286.8371,"bstar":4.8936e-5,"rev_number":15023,"period_min":94.105976380073,"perigee_km":474.5082651945,"apogee_km":475.98311314921,"semimajor_km":6853.3826891719,"source":"CELESTRAK","updated_at":"2026-05-25T13:38:18.463874Z"}}}